TimeCST,TemperatureF,Dew PointF,Humidity,Sea Level PressureIn,VisibilityMPH,Wind Direction,Wind SpeedMPH,Gust SpeedMPH,PrecipitationIn,Events,Conditions,WindDirDegrees,DateUTC
12:15 AM,23.0,17.6,80,29.75,2.5,SW,8.1,-,N/A,,Overcast,220,2012-11-25 06:15:00
12:55 AM,23.0,17.6,80,29.74,8.0,SW,8.1,-,N/A,,Overcast,220,2012-11-25 06:55:00
1:15 AM,23.0,17.6,80,29.73,10.0,SW,5.8,-,N/A,,Overcast,230,2012-11-25 07:15:00
1:35 AM,24.8,17.6,74,29.72,10.0,SW,9.2,-,N/A,,Overcast,220,2012-11-25 07:35:00
1:55 AM,24.8,15.8,69,29.73,10.0,SW,6.9,-,N/A,,Overcast,230,2012-11-25 07:55:00
2:15 AM,24.8,17.6,74,29.73,10.0,SW,6.9,-,N/A,,Overcast,230,2012-11-25 08:15:00
2:35 AM,24.8,17.6,74,29.73,10.0,WSW,6.9,-,N/A,,Overcast,250,2012-11-25 08:35:00
2:55 AM,24.8,17.6,74,29.72,10.0,WSW,8.1,-,N/A,,Overcast,250,2012-11-25 08:55:00
3:15 AM,24.8,17.6,74,29.72,10.0,WSW,9.2,-,N/A,,Overcast,240,2012-11-25 09:15:00
3:35 AM,24.8,17.6,74,29.72,10.0,WSW,10.4,-,N/A,,Overcast,250,2012-11-25 09:35:00
3:55 AM,24.8,17.6,74,29.72,10.0,West,11.5,-,N/A,,Overcast,260,2012-11-25 09:55:00
4:15 AM,24.8,17.6,74,29.72,8.0,WSW,10.4,-,N/A,,Overcast,250,2012-11-25 10:15:00
4:35 AM,24.8,17.6,74,29.72,8.0,WSW,11.5,-,N/A,,Overcast,250,2012-11-25 10:35:00
4:55 AM,24.8,17.6,74,29.73,10.0,West,10.4,-,N/A,,Overcast,260,2012-11-25 10:55:00
5:15 AM,23.0,17.6,80,29.73,10.0,West,12.7,-,N/A,,Overcast,260,2012-11-25 11:15:00
5:35 AM,24.8,17.6,74,29.73,10.0,West,11.5,-,N/A,,Overcast,260,2012-11-25 11:35:00
5:55 AM,23.0,17.6,80,29.73,10.0,West,15.0,-,N/A,,Overcast,260,2012-11-25 11:55:00
6:15 AM,23.0,17.6,80,29.73,10.0,West,11.5,-,N/A,,Overcast,270,2012-11-25 12:15:00
6:35 AM,24.8,17.6,74,29.73,10.0,West,13.8,-,N/A,,Overcast,260,2012-11-25 12:35:00
6:55 AM,24.8,17.6,74,29.74,10.0,West,13.8,-,N/A,,Overcast,260,2012-11-25 12:55:00
7:15 AM,24.8,17.6,74,29.74,10.0,West,13.8,-,N/A,,Overcast,260,2012-11-25 13:15:00
7:35 AM,24.8,17.6,74,29.74,10.0,West,12.7,-,N/A,,Overcast,260,2012-11-25 13:35:00
7:55 AM,23.0,17.6,80,29.75,10.0,West,11.5,-,N/A,,Overcast,260,2012-11-25 13:55:00
8:15 AM,24.8,17.6,74,29.76,10.0,West,12.7,-,N/A,,Overcast,260,2012-11-25 14:15:00
8:35 AM,24.8,17.6,74,29.76,10.0,West,13.8,-,N/A,,Overcast,270,2012-11-25 14:35:00
8:55 AM,24.8,17.6,74,29.76,10.0,West,11.5,-,N/A,,Overcast,260,2012-11-25 14:55:00
9:15 AM,24.8,17.6,74,29.76,10.0,West,13.8,-,N/A,,Overcast,260,2012-11-25 15:15:00
9:35 AM,24.8,19.4,80,29.77,10.0,West,15.0,-,N/A,,Overcast,260,2012-11-25 15:35:00
9:55 AM,24.8,17.6,74,29.77,10.0,West,16.1,-,N/A,,Overcast,270,2012-11-25 15:55:00
10:15 AM,24.8,17.6,74,29.78,10.0,West,13.8,-,N/A,,Overcast,260,2012-11-25 16:15:00
10:35 AM,24.8,19.4,80,29.79,10.0,West,13.8,20.7,N/A,,Overcast,260,2012-11-25 16:35:00
10:55 AM,24.8,17.6,74,29.79,10.0,West,16.1,-,N/A,,Overcast,260,2012-11-25 16:55:00
11:15 AM,24.8,17.6,74,29.79,10.0,West,19.6,-,N/A,,Overcast,260,2012-11-25 17:15:00
11:35 AM,24.8,17.6,74,29.80,10.0,West,15.0,24.2,N/A,,Overcast,260,2012-11-25 17:35:00
11:55 AM,24.8,17.6,74,29.79,10.0,West,19.6,-,N/A,,Overcast,260,2012-11-25 17:55:00
12:15 PM,24.8,19.4,80,29.80,10.0,West,17.3,-,N/A,,Overcast,270,2012-11-25 18:15:00
12:35 PM,24.8,17.6,74,29.80,8.0,West,16.1,25.3,N/A,,Overcast,280,2012-11-25 18:35:00
12:55 PM,24.8,17.6,74,29.80,10.0,West,17.3,-,N/A,,Overcast,270,2012-11-25 18:55:00
1:15 PM,24.8,17.6,74,29.81,4.0,West,15.0,-,N/A,,Overcast,280,2012-11-25 19:15:00
1:35 PM,24.8,15.8,69,29.82,3.0,West,16.1,-,N/A,,Overcast,270,2012-11-25 19:35:00
1:55 PM,24.8,17.6,74,29.82,4.0,West,12.7,-,N/A,,Overcast,280,2012-11-25 19:55:00
2:35 PM,23.0,17.6,80,29.83,1.8,West,11.5,-,N/A,,Overcast,280,2012-11-25 20:35:00
2:55 PM,23.0,17.6,80,29.84,2.0,West,11.5,-,N/A,,Overcast,280,2012-11-25 20:55:00
3:15 PM,23.0,15.8,74,29.85,0.8,West,12.7,-,N/A,,Overcast,270,2012-11-25 21:15:00
3:35 PM,21.2,15.8,80,29.86,1.2,West,13.8,-,N/A,,Overcast,270,2012-11-25 21:35:00
3:55 PM,21.2,17.6,86,29.86,1.2,West,11.5,-,N/A,,Overcast,270,2012-11-25 21:55:00
4:15 PM,21.2,17.6,86,29.86,2.0,West,11.5,-,N/A,,Overcast,280,2012-11-25 22:15:00
4:35 PM,23.0,17.6,80,29.87,10.0,WNW,10.4,-,N/A,,Overcast,290,2012-11-25 22:35:00
4:55 PM,23.0,15.8,74,29.87,8.0,WNW,10.4,-,N/A,,Mostly Cloudy,300,2012-11-25 22:55:00
5:15 PM,23.0,14.0,68,29.88,10.0,WSW,9.2,-,N/A,,Overcast,250,2012-11-25 23:15:00
5:35 PM,21.2,15.8,80,29.89,10.0,West,11.5,-,N/A,,Overcast,260,2012-11-25 23:35:00
5:55 PM,21.2,15.8,80,29.90,10.0,West,12.7,-,N/A,,Overcast,260,2012-11-25 23:55:00
6:15 PM,21.2,15.8,80,29.90,10.0,West,9.2,-,N/A,,Overcast,280,2012-11-26 00:15:00
6:35 PM,23.0,14.0,68,29.90,10.0,WNW,10.4,16.1,N/A,,Overcast,300,2012-11-26 00:35:00
6:55 PM,23.0,10.4,59,29.90,10.0,WNW,10.4,-,N/A,,Overcast,290,2012-11-26 00:55:00
7:15 PM,24.8,10.4,54,29.91,10.0,WNW,10.4,-,N/A,,Overcast,290,2012-11-26 01:15:00
7:35 PM,21.2,10.4,63,29.91,10.0,West,6.9,-,N/A,,Overcast,270,2012-11-26 01:35:00
7:55 PM,21.2,14.0,74,29.92,10.0,West,8.1,-,N/A,,Overcast,260,2012-11-26 01:55:00
8:15 PM,21.2,14.0,74,29.92,10.0,West,9.2,-,N/A,,Overcast,260,2012-11-26 02:15:00
8:35 PM,21.2,14.0,74,29.92,10.0,WSW,8.1,-,N/A,,Overcast,250,2012-11-26 02:35:00
8:55 PM,21.2,12.2,68,29.93,10.0,West,5.8,-,N/A,,Overcast,270,2012-11-26 02:55:00
9:15 PM,21.2,14.0,74,29.93,4.0,West,4.6,-,N/A,,Overcast,280,2012-11-26 03:15:00
9:35 PM,21.2,15.8,80,29.94,2.5,West,6.9,-,N/A,,Overcast,280,2012-11-26 03:35:00
9:55 PM,21.2,15.8,80,29.96,1.0,WNW,8.1,-,N/A,,Overcast,290,2012-11-26 03:55:00
10:15 PM,21.2,17.6,86,29.96,3.0,WNW,12.7,-,N/A,,Overcast,290,2012-11-26 04:15:00
10:35 PM,21.2,15.8,80,29.97,7.0,NW,12.7,-,N/A,,Overcast,310,2012-11-26 04:35:00
10:55 PM,21.2,14.0,74,29.98,8.0,NW,15.0,20.7,N/A,,Overcast,310,2012-11-26 04:55:00
11:15 PM,21.2,12.2,68,29.99,7.0,WNW,10.4,-,N/A,,Overcast,290,2012-11-26 05:15:00
11:35 PM,21.2,12.2,68,30.00,7.0,WNW,10.4,16.1,N/A,,Overcast,300,2012-11-26 05:35:00
11:55 PM,21.2,12.2,68,30.01,9.0,WNW,10.4,-,N/A,,Overcast,290,2012-11-26 05:55:00